Location: Cincinnati Observatory Center
(39.1389°N, 84.4225°W)
Time: 05:29:00
(UTC-04:00)

Hubble Space Telescope - Visible Passes

Search period start: 19 August 2017 00:00
Search period end: 29 August 2017 00:00
Orbit: 538 x 542 km, 28.5° (Epoch: 18 August)

Date Brightness Start Highest point End Pass type
(mag) Time Alt. Az. Time Alt. Az. Time Alt. Az.
19 Aug 2.7 05:12:56 16° SSE 05:12:56 16° SSE 05:15:17 10° SE visible
20 Aug 2.8 05:03:25 16° SSE 05:03:25 16° SSE 05:05:15 10° SE visible
21 Aug 3.0 04:53:56 15° SSE 04:53:56 15° SSE 04:55:09 10° SE visible
22 Aug 3.3 04:44:31 12° SE 04:44:31 12° SE 04:44:59 10° SE visible
22 Aug 2.7 06:20:18 10° SW 06:22:39 15° SSW 06:24:59 10° SSE visible
23 Aug 2.8 06:10:34 10° SW 06:12:25 13° SSW 06:14:24 10° SSE visible
24 Aug 2.9 06:01:20 11° SSW 06:02:11 11° SSW 06:03:34 10° S visible
